RH
8 7 7 6 6 5 5 5 4 4 4 4 4 4 5 9 30 35 55 50 26 37 67 83 90 72 36 24 25 36 46 66 20 16 16 19 19 17 10 5 3 3 6 9 15
7 7 7 6 6 6 5 4 4 4 4 4 4 4 4 4 14 31 29 42 39 34 62 86 85 60 45 32 34 41 45 23 16 16 15 11 18 20 16 12 8 6 3 3 5
7 8 6 6 6 6 5 5 4 4 4 3 3 3 3 3 4 9 19 15 48 35 56 78 81 70 43 30 32 43 29 20 12 10 12 12 11 13 9 5 7 8 5 3 4
4 6 6 7 5 5 5 5 4 3 3 3 3 3 3 3 3 3 5 10 35 37 48 80 74 64 45 31 20 34 20 16 8 7 8 10 9 9 10 4 6 11 7 4 7
3 2 4 6 6 5 5 4 4 3 3 3 3 3 3 3 2 3 3 5 19 44 47 78 73 61 44 39 29 30 22 19 26 12 10 8 7 6 6 8 4 9 12 8 6
4 4 3 2 4 6 5 5 4 3 3 3 3 3 3 3 2 2 3 5 14 44 43 67 71 64 49 44 39 37 26 27 40 30 21 14 10 5 4 6 6 3 4 4 4
11 8 4 4 2 2 5 5 4 4 4 3 3 3 3 3 2 2 3 4 12 40 43 67 72 67 54 38 39 36 42 44 43 41 39 28 22 12 5 4 8 6 3 3 4
13 12 10 8 4 3 2 4 5 4 4 4 3 3 3 3 2 2 2 3 7 27 40 43 65 67 62 38 42 42 36 55 50 47 44 44 58 30 18 6 4 8 6 3 2
15 14 12 11 9 7 4 2 3 5 4 4 3 3 3 3 3 2 2 3 3 8 26 41 45 52 39 36 43 43 73 84 57 58 59 57 68 45 32 20 6 4 5 7 5
16 16 13 12 11 10 10 5 2 3 5 4 4 3 2 3 3 3 2 2 3 3 9 29 37 47 32 36 58 66 79 71 66 54 58 61 65 68 53 32 17 9 5 4 4
15 15 14 13 12 12 11 10 6 2 3 5 4 4 2 3 3 3 3 3 3 3 4 11 21 12 14 26 71 70 69 68 78 54 56 60 59 63 72 47 27 27 11 7 6
16 15 13 13 12 12 12 13 12 6 2 4 5 4 3 2 3 3 3 3 3 3 3 5 6 19 31 34 36 45 70 71 64 56 57 60 63 61 65 64 35 29 25 7 3
16 16 15 13 12 12 13 12 13 13 9 4 4 5 4 3 3 3 3 4 4 4 3 4 11 32 27 17 23 37 65 70 73 55 57 53 58 58 59 59 48 31 34 38 18
17 16 17 14 12 14 15 15 13 14 11 13 4 4 4 4 3 3 3 4 4 4 4 4 13 29 28 16 19 61 40 72 73 51 57 51 60 64 51 51 40 35 21 37 39
22 20 18 15 15 15 15 16 14 14 10 12 9 6 4 5 4 3 4 4 4 4 4 4 4 11 42 23 21 68 48 50 52 58 68 49 54 62 52 50 52 50 27 32 46
22 21 24 21 16 16 18 16 16 15 10 10 12 10 7 3 5 4 3 4 5 5 5 6 5 9 23 34 26 61 33 45 49 68 64 61 61 57 60 52 58 57 58 57 53
19 22 23 24 23 20 20 19 19 13 12 12 12 12 10 5 3 5 4 3 3 4 4 5 6 6 11 33 40 19 30 54 59 67 62 65 65 64 63 55 58 58 59 61 61
17 17 19 24 26 23 24 22 17 11 16 15 14 14 14 11 9 4 5 4 4 4 5 5 5 5 6 13 18 10 35 61 70 66 62 62 50 30 50 50 55 57 58 59 59
12 16 18 18 24 26 24 22 19 19 18 19 18 18 16 15 12 5 4 5 4 4 4 5 5 6 7 9 14 15 21 58 67 67 70 59 37 26 40 46 48 53 56 56 55
13 13 15 22 24 23 21 19 20 19 21 24 22 19 19 18 16 12 8 4 5 4 6 5 6 5 7 10 11 21 29 35 48 68 67 60 58 47 52 44 52 47 54 51 51
27 22 16 18 22 27 20 19 22 19 22 25 26 23 21 20 18 16 13 10 6 5 5 6 6 7 6 7 8 10 10 18 54 57 57 63 43 44 35 43 49 46 48 50 40
11 24 26 24 21 23 23 27 22 24 27 26 26 28 24 22 19 18 16 14 9 6 6 5 5 7 5 6 10 12 14 9 13 24 38 51 49 58 32 36 32 34 42 42 43
3 5 11 23 26 25 27 22 23 26 28 27 25 29 30 26 22 21 19 15 13 7 6 6 5 6 8 6 7 9 8 10 10 25 46 38 25 58 22 18 18 22 30 34 51
5 3 3 4 14 23 25 26 26 24 26 29 27 29 29 28 25 22 20 17 17 12 7 7 6 6 6 5 8 7 8 10 10 13 28 31 14 51 16 13 16 17 22 25 44
10 7 6 4 3 6 17 21 24 25 25 26 27 27 30 30 29 26 26 20 21 17 10 8 6 6 6 20 25 10 7 8 8 7 10 17 26 7 14 8 10 16 16 22 46
16 12 11 8 6 4 3 6 13 21 25 31 29 27 25 28 30 29 29 26 25 21 17 10 7 7 6 8 11 9 7 7 7 7 7 11 14 44 6 8 8 11 15 18 25
25 21 23 23 14 8 7 4 5 10 21 26 26 29 31 33 26 26 24 24 24 22 20 16 10 8 8 10 12 13 5 5 6 7 7 7 8 7 7 7 8 8 13 18 26
Wind_Speed
16 15 13 12 11 11 11 12 12 11 12 13 14 17 18 21 22 19 20 16 16 14 12 6 11 14 13 11 13 14 16 10 13 15 13 14 12 14 16 14 15 14 12 13 12
19 19 18 16 14 13 13 12 11 11 11 12 13 15 18 20 21 22 22 19 16 15 15 12 14 15 12 13 13 12 13 12 12 13 13 13 13 12 12 11 11 15 15 14 14
21 21 21 20 18 17 15 14 13 12 12 12 12 14 16 19 21 22 22 20 19 18 18 16 16 15 11 12 9 11 12 9 10 12 14 11 13 13 11 13 13 14 18 15 15
25 24 22 21 21 20 17 15 14 13 14 14 13 13 15 18 22 21 21 19 21 19 20 18 17 14 12 12 7 10 8 8 9 14 16 13 11 13 12 13 15 13 14 16 16
9 21 26 24 22 21 20 18 16 14 14 14 14 14 15 16 17 18 17 15 21 21 21 22 19 15 11 12 9 10 10 10 11 14 17 15 13 11 12 12 13 13 12 13 14
7 7 10 23 26 24 22 21 19 16 15 15 16 15 15 15 14 20 15 15 23 25 24 23 21 18 13 13 10 12 14 13 13 14 15 15 15 12 11 12 10 12 13 14 13
9 9 8 6 15 26 24 23 22 20 17 17 17 17 17 13 16 18 18 19 24 27 26 27 25 21 16 13 12 13 16 15 15 14 14 14 15 15 12 12 11 11 10 13 14
10 10 10 8 7 6 21 27 24 23 21 19 19 20 19 18 17 17 19 22 26 28 30 29 28 25 20 14 16 14 18 15 16 14 11 7 10 13 13 12 11 10 10 9 12
13 13 12 9 9 6 5 18 28 25 24 24 22 21 20 20 19 19 20 23 27 29 30 29 27 26 18 19 20 17 10 13 18 17 14 11 10 9 11 13 11 9 8 9 9
17 17 15 12 11 8 5 7 16 29 26 26 26 23 22 22 21 20 20 21 24 27 30 31 29 28 21 25 20 17 17 14 19 18 16 13 10 8 8 11 13 8 6 7 8
22 20 19 16 15 12 8 7 8 14 30 30 29 29 26 26 24 23 21 22 24 27 28 28 26 20 13 22 22 19 17 15 16 20 17 12 9 7 5 6 12 10 6 5 6
27 25 25 21 17 15 12 9 9 6 15 32 31 31 31 28 26 25 24 23 23 24 28 26 20 19 20 20 24 24 20 17 21 19 18 14 8 8 5 5 7 11 9 6 7
31 30 29 27 23 19 17 14 12 11 11 14 33 33 34 31 29 28 26 25 24 25 24 22 19 26 26 23 26 24 21 17 18 24 20 21 13 7 8 9 7 8 12 8 5
34 33 33 33 31 27 23 20 17 16 15 17 16 35 36 34 33 31 29 29 28 24 25 28 30 31 26 24 21 20 18 18 23 25 18 23 10 11 11 12 8 6 12 11 9
40 37 36 36 36 33 31 28 25 21 20 19 19 16 35 35 35 33 33 33 31 29 29 22 26 30 36 28 22 19 23 17 19 23 22 20 21 9 12 11 5 3 9 7 6
45 45 42 40 39 38 36 35 31 30 27 20 17 18 19 30 37 39 36 37 36 36 32 34 32 34 32 29 26 33 22 21 22 22 26 21 20 10 13 11 10 7 5 6 6
50 48 46 47 46 44 40 38 38 38 30 27 23 21 20 18 29 41 41 41 40 38 37 38 31 33 35 40 39 32 31 28 29 27 23 19 23 17 15 20 18 13 12 11 11
56 54 51 50 50 51 49 46 44 42 35 33 28 25 21 20 21 35 44 44 43 40 38 38 40 39 41 41 38 33 37 31 27 21 16 26 28 18 23 27 26 21 19 16 12
60 60 56 55 54 54 54 55 50 47 41 38 34 31 29 27 25 23 38 42 43 42 43 41 38 38 39 38 41 37 42 33 28 25 26 23 21 25 30 28 26 26 23 19 20
64 64 63 58 57 59 58 54 55 54 48 44 40 37 32 31 30 30 27 34 44 44 43 44 43 42 35 40 43 41 38 41 41 33 33 26 23 21 20 25 19 28 28 26 25
71 68 68 67 64 61 61 60 58 57 52 53 48 45 39 36 35 34 33 31 37 45 45 46 45 48 44 48 46 49 46 44 36 37 34 30 26 23 27 26 21 24 23 30 27
73 75 74 73 71 68 65 64 64 60 57 56 54 50 47 44 40 39 37 37 34 42 48 47 46 51 49 45 45 46 46 43 43 41 40 34 26 23 28 32 29 26 29 32 28
69 72 75 78 76 76 74 71 68 66 63 62 59 55 52 50 48 45 43 42 39 39 47 49 52 51 52 54 52 52 49 48 45 42 41 41 35 25 27 23 22 27 29 29 29
58 62 68 71 78 79 80 76 75 72 69 67 65 61 58 55 54 52 49 45 44 42 43 52 53 53 53 51 49 52 53 52 52 49 43 45 37 31 32 24 22 26 27 29 30
44 50 53 61 70 75 82 82 82 80 77 73 73 68 63 59 56 57 54 51 47 49 46 47 53 55 54 48 44 52 54 57 53 50 50 39 41 36 37 27 26 27 28 28 33
39 38 40 47 54 61 73 76 82 86 83 79 78 76 72 68 64 61 58 56 54 52 52 52 52 54 57 54 55 56 57 55 55 53 51 50 47 37 37 34 33 27 28 31 31
39 39 37 37 40 46 55 68 77 83 82 86 85 80 76 74 70 68 65 64 63 58 57 56 53 54 56 53 52 59 57 55 55 56 54 54 53 47 47 35 34 31 32 35 35
Wind_Direction
254 252 249 249 248 246 243 237 231 232 236 235 231 229 227 222 218 215 215 205 201 196 176 177 169 137 121 104 102 98 89 85 105 100 92 93 95 97 92 94 94 94 96 99 104
250 251 250 248 247 248 247 245 240 235 232 234 235 231 229 227 221 219 221 209 202 195 182 186 179 145 118 108 114 109 100 106 114 109 94 93 100 103 103 98 101 101 92 90 100
253 249 249 247 244 242 243 245 241 237 236 235 237 234 233 229 225 223 221 209 202 199 185 182 176 157 118 117 126 114 120 120 112 112 101 97 94 100 105 101 100 109 107 100 102
252 252 248 246 245 242 240 240 240 235 233 231 231 236 236 232 228 225 221 208 197 198 190 191 180 167 126 131 146 130 128 128 119 110 103 103 98 92 88 94 98 107 101 103 101
280 253 250 249 245 244 242 241 239 234 233 231 230 231 235 236 227 226 228 208 194 197 196 191 190 184 146 145 161 153 147 134 109 104 99 101 100 98 93 92 96 109 113 107 107
315 315 268 248 249 245 241 241 239 234 233 234 232 230 234 235 222 220 216 193 191 196 203 202 199 198 160 163 169 167 160 143 119 107 103 99 99 106 102 103 108 108 112 111 106
307 305 309 309 254 247 244 241 237 234 229 232 233 231 232 229 222 219 213 195 192 197 203 207 204 203 180 185 182 169 154 143 134 125 108 100 96 99 102 107 118 121 116 113 110
280 289 303 309 311 287 245 239 238 233 228 228 231 232 231 228 223 218 208 201 195 198 205 209 210 213 201 186 184 176 167 148 144 135 128 123 92 102 104 108 110 127 135 129 123
277 277 276 283 297 309 294 241 235 234 230 227 229 229 230 229 225 220 214 210 204 204 207 212 215 218 216 189 182 179 186 180 148 139 131 126 112 112 112 107 112 117 139 155 151
275 273 274 273 270 272 274 289 245 231 231 229 228 229 227 226 224 221 216 217 216 214 211 212 213 219 217 184 191 191 168 197 165 167 158 152 143 132 120 121 118 124 135 149 161
272 275 270 266 265 266 252 247 280 246 226 229 228 229 227 225 222 224 217 214 217 217 216 219 217 201 177 167 183 201 201 206 201 180 179 176 176 163 150 152 135 112 123 155 156
264 268 272 266 257 258 257 243 251 261 242 227 228 230 227 225 223 223 220 221 217 219 220 215 206 207 215 207 183 182 193 206 218 202 195 192 197 198 193 246 158 134 113 139 172
261 262 265 264 261 255 257 255 247 244 253 256 230 228 230 226 224 223 223 219 218 218 224 224 219 221 216 204 191 193 205 212 220 215 212 203 195 194 242 251 202 170 142 132 154
261 259 259 260 259 259 259 258 255 250 250 251 248 229 229 225 227 222 222 219 220 218 217 219 217 221 222 213 200 208 193 208 222 216 229 225 208 271 264 233 224 209 176 150 148
258 256 257 256 256 255 257 258 258 256 255 245 254 237 232 227 224 227 223 222 220 216 218 219 217 216 223 219 218 207 212 213 216 222 232 233 228 249 234 222 222 193 185 181 164
255 254 253 255 254 254 253 254 255 253 251 252 245 245 240 234 225 225 221 221 220 218 213 216 210 212 220 225 223 232 206 230 223 225 237 226 230 222 242 202 186 209 227 229 247
254 252 249 251 252 252 251 249 252 250 251 248 247 247 241 241 232 226 224 225 225 224 218 221 208 214 214 213 218 210 215 224 226 230 234 236 228 209 214 197 207 221 216 222 229
253 251 249 247 248 249 249 248 246 247 246 247 245 245 249 245 239 228 226 222 220 224 224 227 219 210 212 216 218 207 212 214 228 233 238 255 236 213 200 205 209 218 218 221 241
251 250 247 245 244 245 246 247 247 246 245 246 244 243 243 244 238 235 230 229 226 223 224 224 226 222 221 220 222 221 221 220 231 231 232 238 243 212 204 212 223 224 224 230 242
250 248 246 243 241 241 243 245 246 245 244 244 243 241 241 240 237 234 235 229 227 226 224 228 224 228 220 222 226 226 230 229 224 228 237 236 232 211 217 214 223 221 224 232 240
250 248 246 244 240 239 240 242 242 244 242 241 240 240 236 237 237 236 235 232 228 225 225 227 225 229 220 221 222 226 228 225 227 235 238 242 235 226 219 207 214 219 226 236 243
246 244 242 243 242 239 238 239 240 240 240 240 239 236 236 234 234 235 233 231 227 227 223 225 226 231 227 224 221 229 232 238 233 230 234 230 238 240 216 213 224 221 223 231 231
249 244 240 238 238 238 237 237 238 238 236 238 238 236 233 230 233 234 233 233 230 227 224 220 223 224 230 227 223 223 227 232 234 235 239 244 237 229 235 233 243 234 233 231 223
256 251 243 238 235 235 235 236 236 237 235 236 237 234 232 229 230 233 234 232 229 225 225 223 225 228 232 238 238 228 229 229 233 235 234 238 239 230 242 237 244 241 238 239 231
260 256 251 243 237 233 232 231 233 233 233 233 234 233 232 229 229 229 228 234 225 229 225 227 229 228 226 224 234 236 231 235 236 240 242 245 246 242 247 246 248 248 244 236 229
259 257 255 252 242 236 231 229 229 230 230 229 230 231 230 227 226 226 228 228 228 224 225 226 230 229 231 227 231 235 236 235 238 240 241 242 243 242 239 245 247 244 248 245 243
254 251 249 250 249 241 235 229 227 227 226 228 229 230 229 226 226 228 227 225 226 224 225 225 227 229 233 229 229 235 236 240 241 241 243 245 248 245 252 246 248 248 248 238 238